Location: Newark
(35.9031°N, 139.7175°E)
Time: 18:44:47
(UTC+00:00)

A-11 Canister half - All Passes

Search period start: 06 June 2020 00:00
Search period end: 16 June 2020 00:00
Orbit: 1515 x 1685 km, 47.2° (Epoch: 05 June)

Date Brightness Start Highest point End Pass type
(mag) Time Alt. Az. Time Alt. Az. Time Alt. Az.
06 Jun - 01:51:12 10° SW 02:01:00 89° NW 02:10:29 10° NE daylight
06 Jun - 03:57:42 10° W 04:06:48 46° NNW 04:15:40 10° ENE daylight
06 Jun - 06:04:34 10° WNW 06:13:30 46° NNE 06:22:17 10° E daylight
06 Jun - 08:09:53 10° NW 08:19:13 89° NNE 08:28:31 10° SE daylight
06 Jun - 10:15:53 10° WNW 10:23:16 28° SW 10:30:41 10° S visible
06 Jun - 23:26:09 10° S 23:33:57 27° SE 23:41:32 10° ENE daylight
07 Jun - 01:28:15 10° SW 01:38:05 87° SE 01:47:35 10° ENE daylight
07 Jun - 03:34:38 10° W 03:43:48 47° NNW 03:52:43 10° ENE daylight
07 Jun - 05:41:35 10° WNW 05:50:30 45° NNE 05:59:15 10° E daylight
07 Jun - 07:46:58 10° NW 07:56:19 86° NNE 08:05:36 10° ESE daylight
07 Jun - 09:52:49 10° WNW 10:00:26 30° SW 10:08:06 10° S daylight
07 Jun - 23:03:35 10° S 23:11:06 25° SE 23:18:25 10° ENE daylight
08 Jun - 01:05:18 10° SW 01:15:09 83° SE 01:24:40 10° ENE daylight
08 Jun - 03:11:34 10° W 03:20:48 48° NNW 03:29:46 10° ENE daylight
08 Jun - 05:18:34 10° WNW 05:27:30 44° N 05:36:14 10° E daylight
08 Jun - 07:24:02 10° NW 07:33:25 82° NE 07:42:40 10° ESE daylight
08 Jun - 09:29:45 10° WNW 09:37:36 32° SW 09:45:28 10° S daylight
08 Jun - 22:41:02 10° S 22:48:15 23° SE 22:55:18 10° E daylight
09 Jun - 00:42:22 10° SW 00:52:14 79° SE 01:01:45 10° ENE daylight
09 Jun - 02:48:29 10° W 02:57:48 49° NNW 03:06:50 10° ENE daylight
09 Jun - 04:55:34 10° WNW 05:04:29 43° N 05:13:12 10° ENE daylight
09 Jun - 07:01:07 10° NW 07:10:29 78° NNE 07:19:44 10° ESE daylight
09 Jun - 09:06:43 10° WNW 09:14:46 35° SW 09:22:50 10° SSE daylight
09 Jun - 22:18:32 10° S 22:25:24 21° SE 22:32:06 10° E daylight
10 Jun - 00:19:28 10° SW 00:29:19 76° SE 00:38:50 10° ENE daylight
10 Jun - 02:25:24 10° W 02:34:48 51° NNW 02:43:54 10° ENE daylight
10 Jun - 04:32:32 10° WNW 04:41:28 43° N 04:50:11 10° ENE daylight
10 Jun - 06:38:10 10° NW 06:47:33 75° NNE 06:56:48 10° ESE daylight
10 Jun - 08:43:41 10° WNW 08:51:55 38° SW 09:00:10 10° SSE daylight
10 Jun - 21:56:05 10° SSE 22:02:33 20° SE 22:08:53 10° E daylight
10 Jun - 23:56:33 10° SW 00:06:24 72° SE 00:15:55 10° ENE daylight
11 Jun - 02:02:20 10° W 02:11:48 52° NNW 02:20:58 10° ENE daylight
11 Jun - 04:09:31 10° WNW 04:18:28 42° N 04:27:10 10° ENE daylight
11 Jun - 06:15:14 10° NW 06:24:37 72° NNE 06:33:50 10° ESE daylight
11 Jun - 08:20:40 10° WNW 08:29:05 40° SW 08:37:29 10° SSE daylight
11 Jun - 21:33:42 10° SSE 21:39:43 18° SE 21:45:36 10° E daylight
11 Jun - 23:33:40 10° SW 23:43:29 68° SE 23:52:59 10° ENE daylight
12 Jun - 01:39:16 10° W 01:48:48 54° NNW 01:58:02 10° NE daylight
12 Jun - 03:46:29 10° WNW 03:55:26 42° N 04:04:09 10° ENE daylight
12 Jun - 05:52:18 10° NW 06:01:41 69° NNE 06:10:53 10° ESE daylight
12 Jun - 07:57:40 10° WNW 08:06:14 43° SW 08:14:46 10° SSE daylight
12 Jun - 21:11:24 10° SSE 21:16:52 16° ESE 21:22:14 10° E daylight
12 Jun - 23:10:47 10° SW 23:20:35 64° SE 23:30:04 10° ENE daylight
13 Jun - 01:16:12 10° W 01:25:49 56° NNW 01:35:07 10° NE daylight
13 Jun - 03:23:25 10° WNW 03:32:25 42° N 03:41:09 10° ENE daylight
13 Jun - 05:29:21 10° NW 05:38:44 66° NNE 05:47:55 10° ESE daylight
13 Jun - 07:34:41 10° WNW 07:43:24 46° SW 07:52:02 10° SSE daylight
13 Jun - 20:49:12 10° SSE 20:54:02 15° ESE 20:58:46 10° E daylight
13 Jun - 22:47:55 10° SW 22:57:41 60° SE 23:07:07 10° ENE daylight
14 Jun - 00:53:08 10° WSW 01:02:50 58° NNW 01:12:11 10° NE daylight
14 Jun - 03:00:23 10° WNW 03:09:24 42° N 03:18:08 10° ENE daylight
14 Jun - 05:06:23 10° NW 05:15:48 63° NNE 05:24:56 10° ESE daylight
14 Jun - 07:11:41 10° WNW 07:20:33 50° SW 07:29:18 10° SSE daylight
14 Jun - 20:27:10 10° SSE 20:31:11 13° ESE 20:35:09 10° E daylight
14 Jun - 22:25:05 10° SSW 22:34:46 57° SE 22:44:10 10° ENE daylight
15 Jun - 00:30:05 10° WSW 00:39:50 60° NNW 00:49:16 10° NE daylight
15 Jun - 02:37:19 10° WNW 02:46:22 42° N 02:55:08 10° ENE daylight
15 Jun - 04:43:27 10° NW 04:52:50 61° NNE 05:01:58 10° ESE daylight
15 Jun - 06:48:43 10° WNW 06:57:41 53° SW 07:06:32 10° SSE daylight
15 Jun - 08:59:21 10° WSW 09:00:59 11° WSW 09:02:37 10° SW daylight
15 Jun - 20:05:25 10° SE 20:08:21 12° ESE 20:11:15 10° ESE daylight
15 Jun - 22:02:14 10° SSW 22:11:52 53° SE 22:21:13 10° ENE daylight
